Date String (YYYY-MM-DD hh:mm:ss) UTC,Instrument flags,Ambient pressure (hPa),Sample flow (lpm),Bypass flow (lpm),Sample temperature (°C),Ambient temperature (°C),ASC tube jacket temperature (°C),LED temperature (°C),Box temperature (°C),Sample RH (%),Span deviation,Mass concentration (μg/m³),Mass concentration (μg/m³),Mass concentration (μg/m³)
DateTimeUTC,F1_M11,P_M11,Q1_M11,Q2_M11,T1_M11,T2_M11,T3_M11,T4_M11,T5_M11,U1_M11,ZSPAN_M11,X0_M11,X2_M11,X1_M11
2022-01-27 11:00:00,,0829.3,4.99,0.00,21.7,22.9,00.0,30.7,23.6,07.7,0000.0,0005.18,0003.28,0002.77
2022-01-27 11:01:00,,0828.8,5.01,0.00,21.7,22.6,00.0,30.7,23.5,07.7,0000.0,0005.27,0003.23,0002.65
2022-01-27 11:02:00,,0828.7,4.99,0.00,21.7,22.0,00.0,30.7,23.3,07.7,0000.0,0005.17,0003.18,0002.55
2022-01-27 11:03:00,,0828.7,4.99,0.00,21.6,21.6,00.0,30.6,23.1,07.7,0000.0,0004.84,0003.10,0002.49
2022-01-27 11:04:00,,0829.0,5.00,0.00,21.5,21.1,00.0,30.6,22.9,07.8,0000.0,0004.81,0003.11,0002.48
2022-01-27 11:05:00,,0829.3,5.00,0.00,21.4,20.8,00.0,30.6,22.8,07.9,0000.0,0004.75,0003.08,0002.49
2022-01-27 11:06:00,,0829.3,5.00,0.00,21.3,20.6,00.0,30.6,22.7,07.9,0000.0,0005.12,0003.13,0002.49
2022-01-27 11:07:00,,0829.2,5.00,0.00,21.2,20.5,00.0,30.5,22.6,08.0,0000.0,0005.33,0003.16,0002.48
2022-01-27 11:08:00,,0829.1,5.01,0.00,21.1,20.4,00.0,30.5,22.5,08.0,0000.0,0005.25,0003.15,0002.48
2022-01-27 11:09:00,,0828.8,5.00,0.00,21.1,20.8,00.0,30.5,22.6,08.0,0000.0,0005.18,0003.14,0002.49
2022-01-27 11:10:00,,0828.9,5.01,0.00,21.3,21.7,00.0,30.5,23.1,07.9,0000.0,0005.39,0003.14,0002.47
2022-01-27 11:11:00,,0829.0,5.00,0.00,21.5,22.6,00.0,30.5,23.4,07.9,0000.0,0006.03,0003.15,0002.46
2022-01-27 11:12:00,,0829.0,5.00,0.00,21.7,22.9,00.0,30.6,23.6,07.8,0000.0,0005.81,0003.14,0002.47
2022-01-27 11:13:00,,0828.9,4.98,0.00,21.7,22.4,00.0,30.6,23.5,07.8,0000.0,0005.96,0003.19,0002.49
2022-01-27 11:14:00,,0829.0,5.00,0.00,21.6,21.9,00.0,30.6,23.3,07.8,0000.0,0006.57,0003.26,0002.49
2022-01-27 11:15:00,,0829.0,5.01,0.00,21.5,21.5,00.0,30.6,23.0,07.9,0000.0,0006.66,0003.27,0002.49
2022-01-27 11:16:00,,0829.0,4.99,0.00,21.4,21.2,00.0,30.6,22.9,07.9,0000.0,0006.71,0003.28,0002.47
2022-01-27 11:17:00,,0829.0,5.00,0.00,21.3,20.9,00.0,30.5,22.8,07.9,0000.0,0006.43,0003.24,0002.44
2022-01-27 11:18:00,,0829.0,5.00,0.00,21.3,20.7,00.0,30.5,22.7,07.9,0000.0,0006.20,0003.20,0002.41
2022-01-27 11:19:00,,0829.0,5.02,0.00,21.2,20.5,00.0,30.5,22.6,07.9,0000.0,0006.15,0003.17,0002.37
2022-01-27 11:20:00,,0829.0,5.00,0.00,21.1,20.4,00.0,30.4,22.5,08.0,0000.0,0006.19,0003.15,0002.33
2022-01-27 11:21:00,,0829.0,4.99,0.00,21.1,20.5,00.0,30.4,22.6,08.0,0000.0,0006.69,0003.16,0002.30
2022-01-27 11:22:00,,0829.0,5.01,0.00,21.2,21.5,00.0,30.4,22.9,07.9,0000.0,0006.07,0003.14,0002.27
2022-01-27 11:23:00,,0829.0,5.00,0.00,21.4,22.4,00.0,30.5,23.3,07.8,0000.0,0006.02,0003.12,0002.23
2022-01-27 11:24:00,,0829.0,5.00,0.00,21.5,22.5,00.0,30.5,23.4,07.8,0000.0,0006.08,0003.07,0002.18
2022-01-27 11:25:00,,0829.0,5.00,0.00,21.5,22.1,00.0,30.5,23.2,07.8,0000.0,0006.73,0002.95,0002.15
2022-01-27 11:26:00,,0828.9,4.99,0.00,21.4,21.6,00.0,30.5,23.0,07.7,0000.0,0006.52,0002.87,0002.11
2022-01-27 11:27:00,,0829.0,5.00,0.00,21.4,21.2,00.0,30.5,22.9,07.8,0000.0,0006.58,0002.87,0002.10
2022-01-27 11:28:00,,0829.0,5.00,0.00,21.3,20.9,00.0,30.4,22.7,07.8,0000.0,0006.57,0002.86,0002.08
2022-01-27 11:29:00,,0829.0,5.00,0.00,21.2,20.7,00.0,30.4,22.6,07.8,0000.0,0006.57,0002.86,0002.05
2022-01-27 11:30:00,,0829.0,5.01,0.00,21.1,20.5,00.0,30.4,22.5,07.8,0000.0,0006.80,0002.85,0002.02
2022-01-27 11:31:00,,0829.0,5.00,0.00,21.0,20.3,00.0,30.3,22.4,07.9,0000.0,0007.86,0002.86,0002.01
2022-01-27 11:32:00,,0829.0,5.00,0.00,21.0,20.7,00.0,30.3,22.5,07.9,0000.0,0007.63,0002.78,0001.98
2022-01-27 11:33:00,,0829.0,5.00,0.00,21.2,21.6,00.0,30.4,22.9,07.8,0000.0,0007.52,0002.78,0001.98
2022-01-27 11:34:00,,0829.0,4.99,0.00,21.4,22.6,00.0,30.4,23.3,07.8,0000.0,0008.10,0002.79,0001.96
2022-01-27 11:35:00,,0829.0,5.01,0.00,21.5,22.8,00.0,30.5,23.5,07.7,0000.0,0008.04,0002.71,0001.94
2022-01-27 11:36:00,,0829.0,4.99,0.00,21.5,22.4,00.0,30.5,23.3,07.8,0000.0,0007.87,0002.70,0001.92
2022-01-27 11:37:00,,0829.0,5.00,0.00,21.5,21.9,00.0,30.5,23.1,07.7,0000.0,0007.78,0002.68,0001.91
2022-01-27 11:38:00,,0828.9,5.01,0.00,21.4,21.4,00.0,30.4,22.9,07.8,0000.0,0007.72,0002.60,0001.88
2022-01-27 11:39:00,,0829.0,5.00,0.00,21.3,21.0,00.0,30.4,22.7,07.8,0000.0,0008.00,0002.55,0001.86
2022-01-27 11:40:00,,0829.0,5.00,0.00,21.2,20.8,00.0,30.4,22.6,07.7,0000.0,0008.80,0002.45,0001.83
2022-01-27 11:41:00,,0829.0,4.99,0.00,21.1,20.6,00.0,30.4,22.5,07.8,0000.0,0008.70,0002.38,0001.81
2022-01-27 11:42:00,,0829.1,4.99,0.00,21.1,20.3,00.0,30.3,22.4,07.8,0000.0,0008.07,0002.32,0001.79
2022-01-27 11:43:00,,0829.1,5.00,0.00,21.0,20.6,00.0,30.3,22.5,07.9,0000.0,0008.21,0002.29,0001.76
2022-01-27 11:44:00,,0829.1,5.01,0.00,21.2,21.6,00.0,30.3,22.9,07.8,0000.0,0008.11,0002.21,0001.72
2022-01-27 11:45:00,,0829.1,4.99,0.00,21.4,22.4,00.0,30.4,23.3,07.8,0000.0,0007.55,0002.13,0001.71
2022-01-27 11:46:00,,0829.1,5.00,0.00,21.5,22.9,00.0,30.4,23.5,07.7,0000.0,0007.47,0002.12,0001.69
2022-01-27 11:47:00,,0829.1,5.01,0.00,21.5,22.4,00.0,30.4,23.3,07.6,0000.0,0007.02,0002.09,0001.67
2022-01-27 11:48:00,,0829.1,5.00,0.00,21.4,21.8,00.0,30.4,23.0,07.6,0000.0,0006.85,0002.08,0001.66
2022-01-27 11:49:00,,0829.1,4.99,0.00,21.3,21.2,00.0,30.4,22.7,07.7,0000.0,0006.77,0002.06,0001.64
2022-01-27 11:50:00,,0829.1,5.00,0.00,21.2,20.7,00.0,30.4,22.5,07.7,0000.0,0006.54,0002.06,0001.64
2022-01-27 11:51:00,,0829.2,5.01,0.00,21.0,20.4,00.0,30.3,22.3,07.8,0000.0,0004.77,0002.09,0001.64
2022-01-27 11:52:00,,0829.2,5.00,0.00,20.9,20.2,00.0,30.3,22.2,07.8,0000.0,0004.84,0002.13,0001.65
2022-01-27 11:53:00,,0829.2,5.01,0.00,20.9,20.3,00.0,30.3,22.2,07.9,0000.0,0004.89,0002.13,0001.64
2022-01-27 11:54:00,,0829.2,5.00,0.00,21.0,21.3,00.0,30.3,22.6,07.8,0000.0,0003.88,0002.14,0001.63
2022-01-27 11:55:00,,0829.2,5.01,0.00,21.2,22.2,00.0,30.3,23.0,07.8,0000.0,0003.76,0002.13,0001.63
2022-01-27 11:56:00,,0829.3,5.00,0.00,21.4,22.7,00.0,30.4,23.3,07.7,0000.0,0003.74,0002.13,0001.61
2022-01-27 11:57:00,,0829.2,4.99,0.00,21.4,22.4,00.0,30.4,23.2,07.7,0000.0,0003.70,0002.14,0001.61
2022-01-27 11:58:00,,0829.2,5.00,0.00,21.4,21.9,00.0,30.4,23.0,07.8,0000.0,0003.59,0002.15,0001.61
2022-01-27 11:59:00,,0829.2,4.99,0.00,21.2,21.3,00.0,30.4,22.7,07.8,0000.0,0003.55,0002.14,0001.61
